| time (UTC) | temp C | wind direction | speed KPH | gust KPH | rain 1hr cm | rain 24hr cm | rain mn cm | humidity % | barometer mb |
| 20260906023926 | 20 | 183 | 12.9 | 12.9 | 0.00 | 0.00 | 0.00 | 59 | 1022.0 |
| 20260906023424 | 20 | 183 | 11.3 | 12.9 | 0.00 | 0.00 | 0.00 | 59 | 1022.2 |
| 20260906022926 | 20 | 183 | 11.3 | 12.9 | 0.00 | 0.00 | 0.00 | 59 | 1021.9 |
| 20260906022424 | 20 | 184 | 11.3 | 12.9 | 0.00 | 0.00 | 0.00 | 59 | 1021.9 |
| 20260906021927 | 20 | 184 | 12.9 | 12.9 | 0.00 | 0.00 | 0.00 | 59 | 1022.0 |
| 20260906021425 | 20 | 182 | 11.3 | 12.9 | 0.00 | 0.00 | 0.00 | 59 | 1021.9 |
| 20260906020926 | 20 | 183 | 11.3 | 12.9 | 0.00 | 0.00 | 0.00 | 59 | 1021.8 |
| 20260906020426 | 20 | 183 | 12.9 | 12.9 | 0.00 | 0.00 | 0.00 | 59 | 1021.7 |
| 20260906015918 | 20 | 182 | 11.3 | 12.9 | 0.00 | 0.00 | 0.00 | 59 | 1021.7 |
| 20260906015416 | 20 | 183 | 11.3 | 12.9 | 0.00 | 0.00 | 0.00 | 59 | 1021.7 |
| 20260906014918 | 20 | 182 | 12.9 | 12.9 | 0.00 | 0.00 | 0.00 | 60 | 1021.6 |
| 20260906014419 | 20 | 183 | 11.3 | 12.9 | 0.00 | 0.00 | 0.00 | 60 | 1021.8 |
| 20260906013918 | 20 | 184 | 12.9 | 12.9 | 0.00 | 0.00 | 0.00 | 60 | 1021.7 |
| 20260906013417 | 20 | 183 | 11.3 | 12.9 | 0.00 | 0.00 | 0.00 | 59 | 1021.8 |
| 20260906012918 | 20 | 185 | 12.9 | 12.9 | 0.00 | 0.00 | 0.00 | 59 | 1021.7 |
| 20260906012417 | 20 | 182 | 11.3 | 12.9 | 0.00 | 0.00 | 0.00 | 59 | 1021.8 |
| 20260906011918 | 20 | 181 | 11.3 | 12.9 | 0.00 | 0.00 | 0.00 | 59 | 1021.7 |
| 20260906011417 | 20 | 186 | 11.3 | 14.5 | 0.00 | 0.00 | 0.00 | 59 | 1021.7 |
| 20260906010918 | 20 | 187 | 11.3 | 14.5 | 0.00 | 0.00 | 0.00 | 59 | 1021.6 |
| 20260906010416 | 20 | 183 | 11.3 | 14.5 | 0.00 | 0.00 | 0.00 | 60 | 1021.7 |
| 20260906005918 | 20 | 183 | 11.3 | 12.9 | 0.00 | 0.00 | 0.00 | 60 | 1021.6 |
| 20260906005417 | 20 | 183 | 12.9 | 12.9 | 0.00 | 0.00 | 0.00 | 59 | 1021.5 |
| 20260906004917 | 20 | 182 | 11.3 | 12.9 | 0.00 | 0.00 | 0.00 | 59 | 1021.6 |
| 20260906004416 | 20 | 182 | 9.7 | 12.9 | 0.00 | 0.00 | 0.00 | 59 | 1021.4 |
| 20260906003906 | 20 | 182 | 11.3 | 12.9 | 0.00 | 0.00 | 0.00 | 59 | 1021.4 |
| 20260906003411 | 20 | 182 | 11.3 | 12.9 | 0.00 | 0.00 | 0.00 | 59 | 1021.7 |
| 20260906002907 | 20 | 182 | 11.3 | 12.9 | 0.00 | 0.00 | 0.00 | 59 | 1021.6 |
| 20260906002410 | 20 | 184 | 12.9 | 12.9 | 0.00 | 0.00 | 0.00 | 59 | 1021.7 |
| 20260906001906 | 20 | 182 | 12.9 | 12.9 | 0.00 | 0.00 | 0.00 | 59 | 1021.6 |
| 20260906001410 | 20 | 182 | 11.3 | 12.9 | 0.00 | 0.00 | 0.00 | 59 | 1021.6 |
| 20260906000907 | 20 | 183 | 11.3 | 12.9 | 0.00 | 0.00 | 0.00 | 59 | 1021.6 |
| 20260906000407 | 20 | 183 | 11.3 | 12.9 | 0.00 | 0.00 | 0.00 | 59 | 1021.7 |
| 20260905235904 | 20 | 183 | 11.3 | 12.9 | 0.00 | 0.00 | 0.00 | 59 | 1021.6 |
| 20260905235404 | 20 | 183 | 12.9 | 12.9 | 0.00 | 0.00 | 0.00 | 59 | 1021.8 |
| 20260905234907 | 21 | 182 | 12.9 | 12.9 | 0.00 | 0.00 | 0.00 | 59 | 1021.9 |
| 20260905234405 | 21 | 184 | 11.3 | 12.9 | 0.00 | 0.00 | 0.00 | 59 | 1021.7 |
| 20260905233903 | 21 | 184 | 11.3 | 12.9 | 0.00 | 0.00 | 0.00 | 58 | 1021.5 |
| 20260905233405 | 21 | 183 | 9.7 | 11.3 | 0.00 | 0.00 | 0.00 | 58 | 1021.6 |
| 20260905232909 | 21 | 184 | 11.3 | 12.9 | 0.00 | 0.00 | 0.00 | 57 | 1021.6 |
| 20260905232405 | 21 | 181 | 11.3 | 12.9 | 0.00 | 0.00 | 0.00 | 56 | 1021.5 |
| 20260905231907 | 21 | 183 | 11.3 | 11.3 | 0.00 | 0.00 | 0.00 | 54 | 1021.5 |
| 20260905231405 | 21 | 184 | 11.3 | 11.3 | 0.00 | 0.00 | 0.00 | 53 | 1021.4 |
| 20260905230903 | 21 | 183 | 11.3 | 11.3 | 0.00 | 0.00 | 0.00 | 53 | 1021.4 |
| 20260905230403 | 21 | 182 | 9.7 | 12.9 | 0.00 | 0.00 | 0.00 | 53 | 1021.4 |
| 20260905225903 | 21 | 182 | 11.3 | 12.9 | 0.00 | 0.00 | 0.00 | 53 | 1021.2 |
| 20260905225405 | 21 | 183 | 11.3 | 12.9 | 0.00 | 0.00 | 0.00 | 53 | 1021.1 |
| 20260905224903 | 21 | 182 | 11.3 | 12.9 | 0.00 | 0.00 | 0.00 | 53 | 1021.2 |
| 20260905224406 | 21 | 182 | 11.3 | 12.9 | 0.00 | 0.00 | 0.00 | 53 | 1021.0 |
| 20260905223903 | 21 | 182 | 11.3 | 12.9 | 0.00 | 0.00 | 0.00 | 52 | 1021.2 |
| 20260905223405 | 21 | 184 | 11.3 | 12.9 | 0.00 | 0.00 | 0.00 | 52 | 1021.0 |
| 20260905222904 | 21 | 183 | 11.3 | 14.5 | 0.00 | 0.00 | 0.00 | 52 | 1021.0 |
| 20260905222404 | 22 | 182 | 11.3 | 14.5 | 0.00 | 0.00 | 0.00 | 52 | 1021.0 |
| 20260905221902 | 22 | 182 | 11.3 | 12.9 | 0.00 | 0.00 | 0.00 | 52 | 1021.1 |
| 20260905221405 | 22 | 182 | 11.3 | 12.9 | 0.00 | 0.00 | 0.00 | 51 | 1020.9 |
| 20260905220904 | 22 | 185 | 11.3 | 12.9 | 0.00 | 0.00 | 0.00 | 51 | 1021.0 |
| 20260905220407 | 22 | 181 | 11.3 | 12.9 | 0.00 | 0.00 | 0.00 | 50 | 1020.8 |
| 20260905215903 | 22 | 181 | 11.3 | 12.9 | 0.00 | 0.00 | 0.00 | 50 | 1020.7 |
| 20260905215403 | 22 | 186 | 11.3 | 12.9 | 0.00 | 0.00 | 0.00 | 49 | 1020.9 |
| 20260905214904 | 22 | 184 | 12.9 | 12.9 | 0.00 | 0.00 | 0.00 | 48 | 1020.9 |
| 20260905214403 | 22 | 180 | 11.3 | 12.9 | 0.00 | 0.00 | 0.00 | 48 | 1020.6 |
| 20260905213903 | 23 | 181 | 11.3 | 12.9 | 0.00 | 0.00 | 0.00 | 47 | 1020.5 |
| 20260905213405 | 23 | 180 | 11.3 | 11.3 | 0.00 | 0.00 | 0.00 | 47 | 1020.4 |
| 20260905212903 | 23 | 183 | 11.3 | 12.9 | 0.00 | 0.00 | 0.00 | 47 | 1020.4 |
| 20260905212405 | 23 | 183 | 11.3 | 12.9 | 0.00 | 0.00 | 0.00 | 47 | 1020.0 |
| 20260905211903 | 23 | 183 | 11.3 | 12.9 | 0.00 | 0.00 | 0.00 | 46 | 1020.1 |
| 20260905211404 | 23 | 181 | 11.3 | 12.9 | 0.00 | 0.00 | 0.00 | 46 | 1020.4 |
| 20260905210905 | 23 | 181 | 11.3 | 12.9 | 0.00 | 0.00 | 0.00 | 45 | 1020.3 |
| 20260905210403 | 23 | 182 | 11.3 | 11.3 | 0.00 | 0.00 | 0.00 | 45 | 1019.9 |
| 20260905205904 | 23 | 182 | 11.3 | 12.9 | 0.00 | 0.00 | 0.00 | 45 | 1020.3 |
| 20260905205404 | 23 | 181 | 9.7 | 12.9 | 0.00 | 0.00 | 0.00 | 44 | 1019.9 |
| 20260905204904 | 23 | 181 | 9.7 | 12.9 | 0.00 | 0.00 | 0.00 | 44 | 1019.7 |
| 20260905204403 | 23 | 181 | 11.3 | 14.5 | 0.00 | 0.00 | 0.00 | 44 | 1019.6 |
| 20260905203906 | 23 | 181 | 9.7 | 14.5 | 0.00 | 0.00 | 0.00 | 44 | 1019.5 |
| 20260905203404 | 24 | 181 | 9.7 | 12.9 | 0.00 | 0.00 | 0.00 | 43 | 1019.6 |
| 20260905202905 | 24 | 182 | 11.3 | 12.9 | 0.00 | 0.00 | 0.00 | 43 | 1019.6 |
| 20260905202404 | 24 | 184 | 8.0 | 12.9 | 0.00 | 0.00 | 0.00 | 43 | 1019.5 |
| 20260905201905 | 24 | 182 | 9.7 | 11.3 | 0.00 | 0.00 | 0.00 | 43 | 1019.4 |
| 20260905201403 | 24 | 182 | 9.7 | 12.9 | 0.00 | 0.00 | 0.00 | 43 | 1019.4 |
| 20260905200905 | 24 | 180 | 11.3 | 12.9 | 0.00 | 0.00 | 0.00 | 42 | 1019.5 |
| 20260905200404 | 25 | 181 | 11.3 | 12.9 | 0.00 | 0.00 | 0.00 | 42 | 1019.4 |
| 20260905195905 | 25 | 182 | 9.7 | 12.9 | 0.00 | 0.00 | 0.00 | 42 | 1019.2 |
| 20260905195405 | 25 | 181 | 9.7 | 12.9 | 0.00 | 0.00 | 0.00 | 42 | 1019.2 |
| 20260905194904 | 25 | 181 | 9.7 | 12.9 | 0.00 | 0.00 | 0.00 | 41 | 1018.9 |
| 20260905194405 | 25 | 182 | 9.7 | 12.9 | 0.00 | 0.00 | 0.00 | 41 | 1018.7 |
| 20260905193903 | 25 | 180 | 9.7 | 12.9 | 0.00 | 0.00 | 0.00 | 41 | 1018.7 |
| 20260905193403 | 25 | 180 | 9.7 | 12.9 | 0.00 | 0.00 | 0.00 | 41 | 1018.7 |
| 20260905192906 | 25 | 181 | 8.0 | 12.9 | 0.00 | 0.00 | 0.00 | 41 | 1018.4 |
| 20260905192404 | 25 | 180 | 9.7 | 11.3 | 0.00 | 0.00 | 0.00 | 41 | 1018.6 |
| 20260905191906 | 26 | 182 | 9.7 | 14.5 | 0.00 | 0.00 | 0.00 | 41 | 1018.3 |
| 20260905191405 | 26 | 180 | 11.3 | 14.5 | 0.00 | 0.00 | 0.00 | 42 | 1018.5 |
| 20260905190906 | 26 | 180 | 8.0 | 12.9 | 0.00 | 0.00 | 0.00 | 43 | 1018.3 |
| 20260905190404 | 26 | 180 | 11.3 | 12.9 | 0.00 | 0.00 | 0.00 | 43 | 1018.3 |
| 20260905185904 | 26 | 180 | 9.7 | 11.3 | 0.00 | 0.00 | 0.00 | 43 | 1018.4 |
| 20260905185403 | 26 | 182 | 9.7 | 11.3 | 0.00 | 0.00 | 0.00 | 43 | 1018.1 |
| 20260905184905 | 26 | 177 | 9.7 | 14.5 | 0.00 | 0.00 | 0.00 | 43 | 1018.3 |
| 20260905184403 | 26 | 180 | 9.7 | 14.5 | 0.00 | 0.00 | 0.00 | 43 | 1018.0 |
| 20260905183904 | 26 | 183 | 14.5 | 14.5 | 0.00 | 0.00 | 0.00 | 43 | 1017.9 |
| 20260905183403 | 26 | 182 | 9.7 | 14.5 | 0.00 | 0.00 | 0.00 | 43 | 1018.0 |
| 20260905182905 | 26 | 181 | 9.7 | 12.9 | 0.00 | 0.00 | 0.00 | 43 | 1018.0 |
| 20260905182403 | 26 | 181 | 8.0 | 11.3 | 0.00 | 0.00 | 0.00 | 42 | 1017.8 |
| 20260905181904 | 26 | 181 | 9.7 | 12.9 | 0.00 | 0.00 | 0.00 | 42 | 1018.0 |
| 20260905181404 | 27 | 179 | 8.0 | 12.9 | 0.00 | 0.00 | 0.00 | 42 | 1017.6 |
| 20260905180903 | 27 | 180 | 9.7 | 12.9 | 0.00 | 0.00 | 0.00 | 42 | 1017.3 |
| 20260905180403 | 27 | 174 | 9.7 | 14.5 | 0.00 | 0.00 | 0.00 | 42 | 1017.4 |
| 20260905175903 | 27 | 180 | 6.4 | 14.5 | 0.00 | 0.00 | 0.00 | 41 | 1017.4 |
| 20260905175404 | 27 | 182 | 6.4 | 12.9 | 0.00 | 0.00 | 0.00 | 41 | 1017.3 |
| 20260905174905 | 27 | 181 | 8.0 | 14.5 | 0.00 | 0.00 | 0.00 | 42 | 1017.1 |
| 20260905174404 | 27 | 179 | 11.3 | 14.5 | 0.00 | 0.00 | 0.00 | 42 | 1016.9 |
| 20260905173904 | 27 | 180 | 8.0 | 11.3 | 0.00 | 0.00 | 0.00 | 42 | 1017.1 |
| 20260905173404 | 28 | 180 | 8.0 | 14.5 | 0.00 | 0.00 | 0.00 | 41 | 1016.7 |
| 20260905172904 | 28 | 176 | 9.7 | 14.5 | 0.00 | 0.00 | 0.00 | 41 | 1016.7 |
| 20260905172403 | 28 | 178 | 9.7 | 12.9 | 0.00 | 0.00 | 0.00 | 41 | 1016.7 |
| 20260905171904 | 28 | 180 | 9.7 | 14.5 | 0.00 | 0.00 | 0.00 | 40 | 1016.7 |
| 20260905171404 | 28 | 180 | 8.0 | 14.5 | 0.00 | 0.00 | 0.00 | 40 | 1016.4 |
| 20260905170905 | 28 | 181 | 8.0 | 12.9 | 0.00 | 0.00 | 0.00 | 39 | 1016.3 |
| 20260905170403 | 29 | 181 | 9.7 | 12.9 | 0.00 | 0.00 | 0.00 | 39 | 1016.2 |
| 20260905165903 | 29 | 183 | 9.7 | 12.9 | 0.00 | 0.00 | 0.00 | 39 | 1016.2 |
| 20260905165404 | 29 | 179 | 9.7 | 12.9 | 0.00 | 0.00 | 0.00 | 39 | 1016.0 |
| 20260905164903 | 29 | 180 | 9.7 | 12.9 | 0.00 | 0.00 | 0.00 | 39 | 1015.9 |
| 20260905164404 | 29 | 180 | 9.7 | 12.9 | 0.00 | 0.00 | 0.00 | 39 | 1016.0 |
| 20260905163904 | 29 | 180 | 8.0 | 11.3 | 0.00 | 0.00 | 0.00 | 39 | 1015.8 |
| 20260905163411 | 30 | 180 | 8.0 | 12.9 | 0.00 | 0.00 | 0.00 | 39 | 1015.9 |
| 20260905162903 | 30 | 180 | 8.0 | 14.5 | 0.00 | 0.00 | 0.00 | 39 | 1015.6 |
| 20260905162405 | 30 | 180 | 8.0 | 14.5 | 0.00 | 0.00 | 0.00 | 39 | 1015.7 |
| 20260905161904 | 30 | 181 | 9.7 | 12.9 | 0.00 | 0.00 | 0.00 | 39 | 1015.6 |
| 20260905161404 | 30 | 169 | 8.0 | 16.1 | 0.00 | 0.00 | 0.00 | 40 | 1015.4 |
| 20260905160904 | 31 | 177 | 8.0 | 16.1 | 0.00 | 0.00 | 0.00 | 40 | 1015.4 |
| 20260905160405 | 31 | 176 | 8.0 | 14.5 | 0.00 | 0.00 | 0.00 | 41 | 1015.1 |
| 20260905155903 | 31 | 178 | 8.0 | 14.5 | 0.00 | 0.00 | 0.00 | 42 | 1015.2 |
| 20260905155406 | 30 | 179 | 9.7 | 14.5 | 0.00 | 0.00 | 0.00 | 42 | 1015.2 |
| 20260905154903 | 30 | 180 | 9.7 | 14.5 | 0.00 | 0.00 | 0.00 | 43 | 1015.0 |
| 20260905154411 | 30 | 177 | 8.0 | 11.3 | 0.00 | 0.00 | 0.00 | 43 | 1015.1 |
| 20260905153907 | 31 | 180 | 8.0 | 12.9 | 0.00 | 0.00 | 0.00 | 43 | 1015.0 |
| 20260905153409 | 31 | 180 | 6.4 | 12.9 | 0.00 | 0.00 | 0.00 | 42 | 1014.8 |
| 20260905152908 | 31 | 181 | 8.0 | 11.3 | 0.00 | 0.00 | 0.00 | 42 | 1014.8 |
| 20260905152409 | 31 | 170 | 6.4 | 11.3 | 0.00 | 0.00 | 0.00 | 42 | 1014.7 |
| 20260905151906 | 31 | 172 | 8.0 | 11.3 | 0.00 | 0.00 | 0.00 | 42 | 1014.7 |
| 20260905151410 | 32 | 174 | 8.0 | 11.3 | 0.00 | 0.00 | 0.00 | 42 | 1014.7 |
| 20260905150907 | 32 | 182 | 6.4 | 12.9 | 0.00 | 0.00 | 0.00 | 42 | 1014.6 |
| 20260905150409 | 32 | 191 | 4.8 | 14.5 | 0.00 | 0.00 | 0.00 | 42 | 1014.8 |
| 20260905145903 | 32 | 181 | 6.4 | 14.5 | 0.00 | 0.00 | 0.00 | 42 | 1014.4 |
| 20260905145409 | 33 | 179 | 9.7 | 14.5 | 0.00 | 0.00 | 0.00 | 42 | 1014.3 |
| 20260905144903 | 33 | 179 | 6.4 | 11.3 | 0.00 | 0.00 | 0.00 | 39 | 1014.3 |
| 20260905144406 | 33 | 172 | 8.0 | 14.5 | 0.00 | 0.00 | 0.00 | 39 | 1014.1 |
| 20260905144135 | 33 | 171 | 6.4 | 14.5 | 0.00 | 0.00 | 0.00 | 39 | 1014.2 |
| 20260905143404 | 33 | 180 | 8.0 | 11.3 | 0.00 | 0.00 | 0.00 | 39 | 1014.1 |
| 20260905142903 | 33 | 175 | 8.0 | 11.3 | 0.00 | 0.00 | 0.00 | 39 | 1014.2 |
| 20260905142405 | 33 | 173 | 6.4 | 11.3 | 0.00 | 0.00 | 0.00 | 39 | 1014.2 |
| 20260905141904 | 34 | 177 | 8.0 | 11.3 | 0.00 | 0.00 | 0.00 | 39 | 1014.0 |
| 20260905141405 | 34 | 177 | 6.4 | 11.3 | 0.00 | 0.00 | 0.00 | 38 | 1013.9 |
| 20260905140903 | 34 | 177 | 9.7 | 16.1 | 0.00 | 0.00 | 0.00 | 38 | 1013.9 |
| 20260905140407 | 34 | 166 | 6.4 | 16.1 | 0.00 | 0.00 | 0.00 | 38 | 1013.9 |
| 20260905135904 | 34 | 177 | 6.4 | 11.3 | 0.00 | 0.00 | 0.00 | 38 | 1014.1 |
| 20260905135403 | 35 | 176 | 8.0 | 12.9 | 0.00 | 0.00 | 0.00 | 38 | 1014.0 |
| 20260905134905 | 35 | 178 | 8.0 | 12.9 | 0.00 | 0.00 | 0.00 | 38 | 1014.2 |
| 20260905134404 | 35 | 19 | 4.8 | 9.7 | 0.00 | 0.00 | 0.00 | 37 | 1014.0 |
| 20260905133904 | 35 | 6 | 3.2 | 6.4 | 0.00 | 0.00 | 0.00 | 37 | 1014.2 |
| 20260905133403 | 35 | 24 | 3.2 | 8.0 | 0.00 | 0.00 | 0.00 | 37 | 1014.0 |
| 20260905132904 | 35 | 18 | 3.2 | 8.0 | 0.00 | 0.00 | 0.00 | 37 | 1013.8 |
| 20260905132404 | 35 | 13 | 4.8 | 6.4 | 0.00 | 0.00 | 0.00 | 36 | 1013.9 |
| 20260905131903 | 36 | 17 | 1.6 | 8.0 | 0.00 | 0.00 | 0.00 | 35 | 1013.8 |
| 20260905131403 | 36 | 24 | 3.2 | 8.0 | 0.00 | 0.00 | 0.00 | 35 | 1013.8 |
| 20260905130904 | 36 | 44 | 0.0 | 8.0 | 0.00 | 0.00 | 0.00 | 33 | 1013.9 |
| 20260905130403 | 35 | 89 | 3.2 | 8.0 | 0.00 | 0.00 | 0.00 | 34 | 1013.8 |
| 20260905125902 | 36 | 37 | 0.0 | 8.0 | 0.00 | 0.00 | 0.00 | 34 | 1013.8 |
| 20260905125405 | 37 | 22 | 0.0 | 8.0 | 0.00 | 0.00 | 0.00 | 34 | 1014.1 |
| 20260905124902 | 37 | 167 | 0.0 | 4.8 | 0.00 | 0.00 | 0.00 | 32 | 1014.0 |
| 20260905124405 | 37 | 27 | 0.0 | 6.4 | 0.00 | 0.00 | 0.00 | 33 | 1014.1 |
| 20260905123903 | 36 | 25 | 1.6 | 6.4 | 0.00 | 0.00 | 0.00 | 33 | 1014.0 |
| 20260905123404 | 37 | 63 | 3.2 | 4.8 | 0.00 | 0.00 | 0.00 | 33 | 1014.0 |
| 20260905122904 | 36 | 34 | 0.0 | 4.8 | 0.00 | 0.00 | 0.00 | 34 | 1014.2 |
| 20260905122405 | 36 | 195 | 0.0 | 6.4 | 0.00 | 0.00 | 0.00 | 35 | 1014.4 |
| 20260905121903 | 36 | 73 | 0.0 | 6.4 | 0.00 | 0.00 | 0.00 | 35 | 1014.2 |
| 20260905121404 | 36 | 44 | 0.0 | 4.8 | 0.00 | 0.00 | 0.00 | 35 | 1014.4 |
| 20260905120904 | 36 | 18 | 3.2 | 4.8 | 0.00 | 0.00 | 0.00 | 35 | 1014.3 |
| 20260905120403 | 36 | 193 | 3.2 | 4.8 | 0.00 | 0.00 | 0.00 | 35 | 1014.4 |
| 20260905115901 | 36 | 21 | 3.2 | 4.8 | 0.00 | 0.00 | 0.00 | 35 | 1014.6 |
| 20260905115402 | 36 | 28 | 1.6 | 4.8 | 0.00 | 0.00 | 0.00 | 35 | 1014.5 |
| 20260905114901 | 36 | 97 | 0.0 | 6.4 | 0.00 | 0.00 | 0.00 | 34 | 1014.5 |
| 20260905114404 | 36 | 178 | 1.6 | 11.3 | 0.00 | 0.00 | 0.00 | 33 | 1014.6 |
| 20260905113901 | 36 | 11 | 0.0 | 16.1 | 0.00 | 0.00 | 0.00 | 32 | 1014.6 |
| 20260905113402 | 35 | 174 | 9.7 | 16.1 | 0.00 | 0.00 | 0.00 | 33 | 1014.5 |
| 20260905112903 | 36 | 177 | 9.7 | 16.1 | 0.00 | 0.00 | 0.00 | 33 | 1014.6 |
| 20260905112402 | 35 | 182 | 14.5 | 17.7 | 0.00 | 0.00 | 0.00 | 33 | 1014.9 |
| 20260905111901 | 35 | 178 | 9.7 | 17.7 | 0.00 | 0.00 | 0.00 | 35 | 1014.5 |
| 20260905111402 | 35 | 185 | 14.5 | 16.1 | 0.00 | 0.00 | 0.00 | 34 | 1014.8 |
| 20260905110901 | 34 | 177 | 9.7 | 14.5 | 0.00 | 0.00 | 0.00 | 35 | 1014.7 |
| 20260905110404 | 34 | 178 | 12.9 | 14.5 | 0.00 | 0.00 | 0.00 | 36 | 1015.0 |
| 20260905105859 | 33 | 177 | 9.7 | 14.5 | 0.00 | 0.00 | 0.00 | 36 | 1015.0 |
| 20260905105400 | 33 | 180 | 14.5 | 14.5 | 0.00 | 0.00 | 0.00 | 36 | 1015.1 |
| 20260905104901 | 33 | 179 | 11.3 | 12.9 | 0.00 | 0.00 | 0.00 | 37 | 1015.2 |
| 20260905104359 | 33 | 179 | 11.3 | 12.9 | 0.00 | 0.00 | 0.00 | 37 | 1015.0 |
| 20260905103857 | 33 | 174 | 9.7 | 12.9 | 0.00 | 0.00 | 0.00 | 37 | 1015.2 |
| 20260905103359 | 33 | 178 | 9.7 | 11.3 | 0.00 | 0.00 | 0.00 | 37 | 1015.1 |
| 20260905102858 | 33 | 175 | 8.0 | 14.5 | 0.00 | 0.00 | 0.00 | 37 | 1015.3 |
| 20260905102401 | 33 | 175 | 9.7 | 14.5 | 0.00 | 0.00 | 0.00 | 38 | 1015.0 |
| 20260905101859 | 32 | 178 | 9.7 | 14.5 | 0.00 | 0.00 | 0.00 | 38 | 1015.3 |
| 20260905101359 | 32 | 178 | 8.0 | 14.5 | 0.00 | 0.00 | 0.00 | 38 | 1015.2 |
| 20260905100912 | 33 | 176 | 8.0 | 14.5 | 0.00 | 0.00 | 0.00 | 38 | 1015.4 |
| 20260905100411 | 33 | 177 | 9.7 | 11.3 | 0.00 | 0.00 | 0.00 | 37 | 1015.3 |
| 20260905095859 | 32 | 179 | 9.7 | 16.1 | 0.00 | 0.00 | 0.00 | 38 | 1015.5 |
| 20260905095413 | 32 | 177 | 9.7 | 16.1 | 0.00 | 0.00 | 0.00 | 38 | 1015.6 |
| 20260905094912 | 32 | 181 | 12.9 | 14.5 | 0.00 | 0.00 | 0.00 | 38 | 1015.4 |
| 20260905094414 | 32 | 178 | 9.7 | 14.5 | 0.00 | 0.00 | 0.00 | 38 | 1015.5 |
| 20260905093912 | 32 | 178 | 9.7 | 14.5 | 0.00 | 0.00 | 0.00 | 39 | 1015.5 |
| 20260905093401 | 32 | 180 | 9.7 | 14.5 | 0.00 | 0.00 | 0.00 | 39 | 1015.5 |
| 20260905092900 | 32 | 180 | 11.3 | 14.5 | 0.00 | 0.00 | 0.00 | 40 | 1015.4 |
| 20260905092401 | 32 | 178 | 9.7 | 16.1 | 0.00 | 0.00 | 0.00 | 39 | 1015.2 |
| 20260905091859 | 31 | 182 | 14.5 | 16.1 | 0.00 | 0.00 | 0.00 | 39 | 1015.2 |
| 20260905091401 | 31 | 182 | 14.5 | 16.1 | 0.00 | 0.00 | 0.00 | 40 | 1015.3 |
| 20260905090859 | 31 | 181 | 14.5 | 16.1 | 0.00 | 0.00 | 0.00 | 40 | 1015.1 |
| 20260905090402 | 31 | 180 | 11.3 | 14.5 | 0.00 | 0.00 | 0.00 | 40 | 1015.3 |
| 20260905085855 | 31 | 180 | 9.7 | 14.5 | 0.00 | 0.00 | 0.00 | 42 | 1015.3 |
| 20260905085355 | 31 | 175 | 9.7 | 14.5 | 0.00 | 0.00 | 0.00 | 41 | 1015.6 |
| 20260905084856 | 31 | 180 | 11.3 | 14.5 | 0.00 | 0.00 | 0.00 | 42 | 1015.9 |
| 20260905084357 | 30 | 180 | 11.3 | 14.5 | 0.00 | 0.00 | 0.00 | 42 | 1015.8 |
| 20260905083856 | 30 | 181 | 12.9 | 14.5 | 0.00 | 0.00 | 0.00 | 43 | 1015.6 |
| 20260905083355 | 30 | 178 | 9.7 | 14.5 | 0.00 | 0.00 | 0.00 | 43 | 1015.5 |
| 20260905082857 | 30 | 179 | 11.3 | 14.5 | 0.00 | 0.00 | 0.00 | 44 | 1015.7 |
| 20260905082355 | 29 | 180 | 9.7 | 14.5 | 0.00 | 0.00 | 0.00 | 45 | 1015.7 |
| 20260905081856 | 29 | 180 | 9.7 | 14.5 | 0.00 | 0.00 | 0.00 | 46 | 1015.5 |
| 20260905081354 | 29 | 180 | 9.7 | 14.5 | 0.00 | 0.00 | 0.00 | 46 | 1015.4 |
| 20260905080856 | 28 | 180 | 11.3 | 14.5 | 0.00 | 0.00 | 0.00 | 48 | 1015.4 |
| 20260905080354 | 28 | 180 | 11.3 | 14.5 | 0.00 | 0.00 | 0.00 | 48 | 1015.5 |
| 20260905075846 | 28 | 180 | 12.9 | 16.1 | 0.00 | 0.00 | 0.00 | 49 | 1015.5 |
| 20260905075347 | 27 | 179 | 12.9 | 16.1 | 0.00 | 0.00 | 0.00 | 49 | 1015.4 |
| 20260905074849 | 27 | 180 | 11.3 | 12.9 | 0.00 | 0.00 | 0.00 | 53 | 1015.4 |
| 20260905074346 | 27 | 179 | 11.3 | 14.5 | 0.00 | 0.00 | 0.00 | 53 | 1015.5 |
| 20260905073846 | 26 | 181 | 9.7 | 14.5 | 0.00 | 0.00 | 0.00 | 53 | 1015.2 |
| 20260905073345 | 26 | 181 | 11.3 | 14.5 | 0.00 | 0.00 | 0.00 | 54 | 1015.4 |
| 20260905072847 | 26 | 180 | 11.3 | 12.9 | 0.00 | 0.00 | 0.00 | 54 | 1015.3 |
| 20260905072347 | 25 | 183 | 11.3 | 12.9 | 0.00 | 0.00 | 0.00 | 55 | 1015.1 |
| 20260905071847 | 25 | 180 | 11.3 | 14.5 | 0.00 | 0.00 | 0.00 | 56 | 1015.1 |
| 20260905071345 | 25 | 180 | 9.7 | 14.5 | 0.00 | 0.00 | 0.00 | 57 | 1015.1 |
| 20260905070847 | 24 | 180 | 9.7 | 11.3 | 0.00 | 0.00 | 0.00 | 58 | 1015.1 |
| 20260905070347 | 24 | 182 | 11.3 | 16.1 | 0.00 | 0.00 | 0.00 | 58 | 1015.1 |
| 20260905065837 | 23 | 181 | 9.7 | 16.1 | 0.00 | 0.00 | 0.00 | 59 | 1015.0 |
| 20260905065336 | 23 | 181 | 11.3 | 12.9 | 0.00 | 0.00 | 0.00 | 59 | 1015.1 |
| 20260905064838 | 23 | 181 | 11.3 | 14.5 | 0.00 | 0.00 | 0.00 | 60 | 1014.9 |
| 20260905064337 | 22 | 181 | 11.3 | 14.5 | 0.00 | 0.00 | 0.00 | 60 | 1014.7 |
| 20260905063837 | 22 | 181 | 11.3 | 12.9 | 0.00 | 0.00 | 0.00 | 61 | 1014.8 |
| 20260905063336 | 22 | 177 | 11.3 | 12.9 | 0.00 | 0.00 | 0.00 | 61 | 1015.0 |
| 20260905062837 | 22 | 189 | 9.7 | 12.9 | 0.00 | 0.00 | 0.00 | 62 | 1014.8 |
| 20260905062338 | 21 | 183 | 9.7 | 12.9 | 0.00 | 0.00 | 0.00 | 63 | 1014.8 |
| 20260905061837 | 21 | 176 | 9.7 | 12.9 | 0.00 | 0.00 | 0.00 | 64 | 1014.6 |
| 20260905061337 | 21 | 189 | 4.8 | 12.9 | 0.00 | 0.00 | 0.00 | 64 | 1014.9 |
| 20260905060835 | 20 | 201 | 8.0 | 14.5 | 0.00 | 0.00 | 0.00 | 65 | 1014.8 |
| 20260905060336 | 20 | 178 | 9.7 | 14.5 | 0.00 | 0.00 | 0.00 | 65 | 1015.0 |
| 20260905055827 | 20 | 179 | 11.3 | 14.5 | 0.00 | 0.00 | 0.00 | 65 | 1014.9 |
| 20260905055327 | 20 | 194 | 14.5 | 16.1 | 0.00 | 0.00 | 0.00 | 66 | 1014.8 |
| 20260905054827 | 19 | 181 | 12.9 | 17.7 | 0.00 | 0.00 | 0.00 | 66 | 1014.8 |
| 20260905054325 | 19 | 181 | 14.5 | 17.7 | 0.00 | 0.00 | 0.00 | 67 | 1014.8 |
| 20260905053828 | 18 | 181 | 14.5 | 16.1 | 0.00 | 0.00 | 0.00 | 68 | 1014.9 |
| 20260905053325 | 18 | 184 | 14.5 | 17.7 | 0.00 | 0.00 | 0.00 | 69 | 1014.6 |
| 20260905052828 | 18 | 182 | 14.5 | 17.7 | 0.00 | 0.00 | 0.00 | 69 | 1014.9 |
| 20260905052323 | 18 | 183 | 14.5 | 16.1 | 0.00 | 0.00 | 0.00 | 69 | 1014.8 |
| 20260905051824 | 18 | 184 | 12.9 | 14.5 | 0.00 | 0.00 | 0.00 | 69 | 1014.8 |
| 20260905051325 | 18 | 192 | 12.9 | 14.5 | 0.00 | 0.00 | 0.00 | 69 | 1014.8 |
| 20260905050824 | 18 | 185 | 12.9 | 16.1 | 0.00 | 0.00 | 0.00 | 70 | 1014.8 |
| 20260905050323 | 17 | 174 | 11.3 | 16.1 | 0.00 | 0.00 | 0.00 | 70 | 1014.9 |
| 20260905045824 | 17 | 198 | 9.7 | 12.9 | 0.00 | 0.00 | 0.00 | 71 | 1014.8 |
| 20260905045323 | 18 | 188 | 4.8 | 12.9 | 0.00 | 0.00 | 0.00 | 71 | 1014.8 |
| 20260905044824 | 18 | 186 | 6.4 | 12.9 | 0.00 | 0.00 | 0.00 | 71 | 1014.8 |
| 20260905044324 | 18 | 183 | 9.7 | 12.9 | 0.00 | 0.00 | 0.00 | 71 | 1014.6 |
| 20260905043824 | 18 | 184 | 9.7 | 12.9 | 0.00 | 0.00 | 0.00 | 72 | 1014.8 |
| 20260905043324 | 18 | 187 | 11.3 | 12.9 | 0.00 | 0.00 | 0.00 | 72 | 1014.7 |
| 20260905042823 | 18 | 182 | 11.3 | 12.9 | 0.00 | 0.00 | 0.00 | 73 | 1014.6 |
| 20260905042325 | 18 | 184 | 11.3 | 12.9 | 0.00 | 0.00 | 0.00 | 72 | 1014.6 |
| 20260905041823 | 18 | 184 | 12.9 | 12.9 | 0.00 | 0.00 | 0.00 | 72 | 1014.5 |
| 20260905041324 | 18 | 184 | 12.9 | 12.9 | 0.00 | 0.00 | 0.00 | 72 | 1014.5 |
| 20260905040825 | 18 | 184 | 11.3 | 14.5 | 0.00 | 0.00 | 0.00 | 72 | 1014.4 |
| 20260905040324 | 18 | 184 | 12.9 | 14.5 | 0.00 | 0.00 | 0.00 | 72 | 1014.3 |
| 20260905035814 | 18 | 183 | 11.3 | 12.9 | 0.00 | 0.00 | 0.00 | 71 | 1014.4 |
| 20260905035313 | 18 | 184 | 11.3 | 12.9 | 0.00 | 0.00 | 0.00 | 71 | 1014.4 |
| 20260905034814 | 18 | 183 | 11.3 | 12.9 | 0.00 | 0.00 | 0.00 | 71 | 1014.5 |
| 20260905034314 | 18 | 183 | 11.3 | 12.9 | 0.00 | 0.00 | 0.00 | 70 | 1014.5 |
| 20260905033813 | 18 | 181 | 11.3 | 12.9 | 0.00 | 0.00 | 0.00 | 70 | 1014.5 |
| 20260905033316 | 18 | 182 | 11.3 | 12.9 | 0.00 | 0.00 | 0.00 | 70 | 1014.5 |
| 20260905032813 | 18 | 184 | 11.3 | 12.9 | 0.00 | 0.00 | 0.00 | 70 | 1014.6 |
| 20260905032314 | 18 | 182 | 9.7 | 12.9 | 0.00 | 0.00 | 0.00 | 70 | 1014.7 |
| 20260905031813 | 19 | 182 | 11.3 | 12.9 | 0.00 | 0.00 | 0.00 | 70 | 1014.6 |
| 20260905031315 | 19 | 183 | 11.3 | 11.3 | 0.00 | 0.00 | 0.00 | 70 | 1014.6 |
| 20260905030815 | 19 | 180 | 11.3 | 11.3 | 0.00 | 0.00 | 0.00 | 70 | 1014.6 |
| 20260905030307 | 19 | 183 | 11.3 | 12.9 | 0.00 | 0.00 | 0.00 | 70 | 1014.6 |
| 20260905025807 | 19 | 182 | 11.3 | 12.9 | 0.00 | 0.00 | 0.00 | 70 | 1014.8 |
| 20260905025306 | 19 | 182 | 11.3 | 11.3 | 0.00 | 0.00 | 0.00 | 70 | 1014.7 |
| 20260905024806 | 19 | 183 | 9.7 | 11.3 | 0.00 | 0.00 | 0.00 | 70 | 1014.7 |
| 20260905024307 | 19 | 185 | 11.3 | 11.3 | 0.00 | 0.00 | 0.00 | 70 | 1014.6 |